[[{"header":{"parameterUnit":"m.s-1","parameterCategory":1,"la1":30.2991,"la2":30.254,"lo1":-89.0895,"lo2":-89.0444,"dy":0.0017,"dx":0.0017,"nx":28,"ny":28,"refTime":"2024-10-04T03:00:00:Z","depth":0,"parameterNumber":2,"parameterNumberName":"U-component_of_WINDS"},"data":[0,0,0,0,0,0,0,0,0,0,0,0,0,0,0,0,0,0,0,0,0,0,0,0,0,0,0,0,0,0,0,0,0,0,0,0,0,0,0,0,0,0,0,0,0,0,0,0,0,0,0,0,0,0,0,0,0,0,-4.716,-4.7162,0,-4.7332,-4.7334,-4.7336,-4.7217,-4.7212,-4.7207,-4.7202,-4.7387,-4.7397,-4.7407,0,0,0,0,0,0,0,0,0,0,0,0,0,-4.6738,-4.6746,-4.716,-4.7162,-4.7165,-4.7332,-4.7334,-4.7337,-4.7218,-4.7212,-4.7205,-4.7199,-4.7384,-4.7396,-4.7408,0,0,0,0,0,0,0,0,0,0,0,0,0,-4.6917,-4.6749,-4.716,-4.7125,-4.7124,-4.7331,-4.7334,-4.7337,-4.722,-4.7212,-4.7204,-4.7196,-4.738,-4.7395,-4.7409,-4.7663,0,0,-4.7455,-4.7462,0,0,0,0,0,0,0,0,-4.6907,-4.6933,-4.7128,-4.7128,-4.7127,-4.7245,-4.7253,-4.7447,-4.7222,-4.7184,-4.7201,-4.7192,-4.7347,-4.7364,-4.7415,-4.7672,-4.768,-4.7456,-4.7465,-4.7472,-4.7476,0,0,0,0,0,0,0,-4.6895,-4.6925,-4.7228,-4.7131,-4.7131,-4.7104,-4.7121,-4.729,-4.7309,-4.7186,-4.7178,-4.72,-4.7345,-4.74,-4.7418,-4.7683,-4.7456,-4.7469,-4.7478,-4.7484,-4.8157,-4.8166,0,0,0,0,0,0,-4.6884,-4.6915,-4.7223,-4.7234,-4.6995,-4.7118,-4.7137,-4.7215,-4.7307,-4.7313,-4.7206,-4.7193,-4.7379,-4.7401,-4.7424,-4.7727,-4.7472,-4.7486,-4.7494,-4.8149,-4.8159,-4.8169,0,0,0,0,0,0,-4.6876,-4.6913,-4.7216,-4.7072,-4.7109,-4.7134,-4.7223,-4.7223,-4.7278,-4.7322,-4.7325,-4.7259,-4.7373,-4.7403,-4.7604,-4.7732,-4.7493,-4.7506,-4.8138,-4.8152,-4.8164,-4.8336,0,0,0,0,0,0,-4.6864,-4.691,-4.7005,-4.7075,-4.7117,-4.7391,-4.7231,-4.7232,-4.7303,-4.7288,-4.7372,-4.7378,-4.7369,-4.7582,-4.7619,-4.7748,-4.7518,-4.8127,-4.8144,-4.816,-4.8319,-4.8353,-4.8383,0,0,0,0,0,-4.6849,-4.7048,-4.701,-4.7048,-4.7235,-4.7399,-4.7423,-4.7406,-4.7314,-4.741,-4.7438,-4.7375,-4.7712,-4.7604,-4.7644,-4.778,-4.8119,-4.8139,-4.8159,-4.8304,-4.8346,-4.8382,0,0,0,0,0,0,-4.6996,-4.7057,-4.7015,-4.7243,-4.7316,-4.7378,-4.7499,-4.7451,-4.7555,-4.7536,-4.7514,-4.7534,-4.7745,-4.7782,-4.7661,-4.8031,-4.7901,-4.793,-4.7998,-4.8038,-4.807,-4.8057,-4.753,0,0,0,0,0,-4.7054,-4.7179,-4.7226,-4.7422,-4.7461,-4.7474,-4.7545,-4.7525,-4.7602,-4.7633,-4.7676,-4.7755,-4.7878,-4.796,-4.8077,-4.8323,-4.8341,-4.8437,-4.8469,-4.8495,-4.8521,-4.8655,-4.8698,-4.8235,-4.8235,-4.8234,0,0,-4.7176,-4.7225,-4.7306,-4.7453,-4.7507,-4.764,-4.7501,-4.7647,-4.7746,-4.7656,-4.7847,-4.7882,-4.7969,-4.8194,-4.8295,-4.8232,-4.8652,-4.852,-4.8541,-4.8553,-4.868,-4.8723,-4.8762,-4.8249,-4.8246,-4.8244,0,0,-4.7467,-4.7516,-4.7684,-4.7741,-4.7825,-4.7832,-4.7873,-4.7943,-4.7961,-4.8152,-4.8088,-4.8206,-4.8419,-4.8484,-4.8545,-4.886,-4.8806,-4.8899,-4.9067,-4.9197,-4.9234,-4.9266,-4.9379,-4.942,-4.8924,-4.8925,-4.8925,0,-4.7609,-4.7803,-4.7778,-4.7928,-4.7996,-4.7918,-4.809,-4.8147,-4.8266,-4.8316,-4.8242,-4.8507,-4.8561,-4.88,-4.8876,-4.8928,-4.8975,-4.8889,-4.923,-4.9262,-4.9292,-4.94,-4.9442,-4.8935,-4.8934,-4.8933,-4.8932,0,-4.7974,-4.811,-4.8237,-4.835,-4.8432,-4.8593,-4.8595,-4.8681,-4.8655,-4.8671,-4.8868,-4.8928,-4.9055,-4.911,-4.9088,-4.9347,-4.9305,-4.9232,-4.9101,-4.9347,-4.9448,-4.9489,-4.8951,-4.8947,-4.8944,-4.8941,0,0,-4.8362,-4.8458,-4.8506,-4.8556,-4.8643,-4.8748,-4.8907,-4.9028,-4.9103,-4.9188,-4.9321,-4.9503,-4.9435,-4.9504,-4.9488,-4.9603,-4.9849,-4.9515,-4.9517,-4.9575,-5.014,-5.0194,-5.0242,-4.9813,-4.9821,-4.9827,-5.0132,0,-4.8657,-4.8929,-4.8912,-4.917,-4.9296,-4.9224,-4.9362,-4.9431,-4.9451,-4.9563,-4.9585,-4.9714,-4.9615,-4.9656,-4.9766,-4.9796,-4.9962,-4.9773,-4.994,-4.9946,-4.992,-5.0295,-5.0353,-5.0638,-5.0171,-5.0178,-5.0183,0,-4.9037,-4.9132,-4.9402,-4.947,-4.9522,-4.9646,-4.9756,-4.9863,-4.9941,-4.9947,-5.0024,-4.9989,-5.0152,-5.0017,-5.0241,-5.0113,-5.018,-5.0205,-5.0216,-5.0231,-5.0079,-5.0321,-5.0728,-5.0771,-5.0245,-5.024,-5.0235,0,-4.9293,-4.9489,-4.9675,-4.9721,-4.9805,-4.9894,-4.9933,-5.0003,-5.0077,-5.0174,-5.0222,-5.0339,-5.0403,-5.0494,-5.0492,-5.0394,-5.072,-5.0585,-5.0731,-5.0732,-5.0804,-5.0799,-5.1228,-5.0847,-5.0846,-5.0846,-5.0845,0,-4.9625,-4.9793,-4.9791,-4.9907,-5.0093,-5.0073,-5.0259,-5.0289,-5.0352,-5.0473,-5.0419,-5.0535,-5.0524,-5.0642,-5.0642,-5.0828,-5.0858,-5.0869,-5.0867,-5.0874,-5.0872,-5.0917,-5.0898,-5.0857,-5.0854,-5.0852,-5.085,0,-4.9942,-4.9948,-5.0146,-5.0209,-5.0229,-5.0364,-5.0418,-5.0528,-5.0542,-5.0697,-5.0732,-5.0756,-5.0891,-5.0898,-5.1055,-5.1055,-5.1281,-5.1257,-5.1254,-5.125,-5.1396,-5.1382,-5.1869,-5.1932,-5.151,-5.1514,-5.1517,0,-5.0153,-5.028,-5.0356,-5.0432,-5.0476,-5.06,-5.0675,-5.066,-5.0741,-5.0839,-5.0938,-5.1068,-5.117,-5.139,-5.1423,-5.1543,-5.1522,-5.1684,-5.154,-5.1543,-5.1525,-5.1517,-5.153,-5.1713,-5.1717,-5.1721,-5.1724,0,-5.0528,-5.0524,-5.0632,-5.0743,-5.0833,-5.092,-5.1001,-5.1067,-5.1062,-5.1156,-5.1292,-5.1371,-5.153,-5.166,-5.1776,-5.1819,-5.1773,-5.1769,-5.181,-5.1818,-5.1811,-5.1817,-5.1331,-5.1758,-5.1755,-5.1753,-5.1751,-5.1749,-5.0798,-5.0908,-5.0978,-5.1102,-5.116,-5.1237,-5.1343,-5.137,-5.1483,-5.1609,-5.1594,-5.1746,-5.1822,-5.1973,-5.2025,-5.2145,-5.209,-5.2148,-5.2163,-5.2178,-5.2193,-5.1791,-5.2166,-5.2166,-5.2165,-5.2164,-5.2163,0,-5.117,-5.1211,-5.1325,-5.1438,-5.1536,-5.148,-5.1567,-5.1652,-5.1786,-5.1859,-5.1961,-5.2118,-5.2243,-5.2286,-5.2408,-5.2496,-5.2478,-5.2529,-5.2522,-5.2533,-5.2236,-5.2188,-5.2542,-5.2542,-5.2542,-5.2541,-5.2541,-5.2541,-5.1374,-5.1557,-5.1562,-5.1774,-5.1815,-5.1961,-5.2016,-5.2087,-5.2145,-5.2322,-5.2425,-5.2451,-5.2513,-5.2639,-5.2752,-5.2762,-5.281,-5.287,-5.2871,-5.2592,-5.2554,-5.2518,-5.2473,-5.2881,-5.2881,-5.3158,-5.3161,-5.3163]},{"header":{"parameterUnit":"m.s-1","parameterCategory":1,"la1":30.2991,"la2":30.254,"lo1":-89.0895,"lo2":-89.0444,"dy":0.0017,"dx":0.0017,"nx":28,"ny":28,"refTime":"2024-10-04T03:00:00:Z","depth":0,"parameterNumber":3,"parameterNumberName":"V-component_of_WINDS"},"data":[0,0,0,0,0,0,0,0,0,0,0,0,0,0,0,0,0,0,0,0,0,0,0,0,0,0,0,0,0,0,0,0,0,0,0,0,0,0,0,0,0,0,0,0,0,0,0,0,0,0,0,0,0,0,0,0,0,0,0.1927,0.193,0,0.225,0.2253,0.2257,0.2356,0.2355,0.2353,0.2352,0.2682,0.2692,0.2702,0,0,0,0,0,0,0,0,0,0,0,0,0,0.1396,0.1406,0.1926,0.1931,0.1935,0.2249,0.2254,0.2258,0.2357,0.2355,0.2353,0.2351,0.2679,0.2691,0.2703,0,0,0,0,0,0,0,0,0,0,0,0,0,0.1664,0.1409,0.1926,0.2022,0.2034,0.2248,0.2254,0.2259,0.2357,0.2355,0.2352,0.235,0.2675,0.269,0.2705,0.2847,0,0,0.2752,0.2759,0,0,0,0,0,0,0,0,0.1648,0.1683,0.2004,0.2016,0.2029,0.226,0.2188,0.2456,0.2358,0.2234,0.2352,0.2349,0.2544,0.257,0.2636,0.2863,0.2877,0.2753,0.2763,0.2769,0.2774,0,0,0,0,0,0,0,0.163,0.167,0.2054,0.2008,0.2024,0.2049,0.2085,0.2239,0.2398,0.2245,0.2253,0.229,0.255,0.262,0.2644,0.2882,0.2753,0.2767,0.2776,0.2782,0.3245,0.3247,0,0,0,0,0,0,0.1595,0.1654,0.2044,0.2064,0.1829,0.2061,0.21,0.2189,0.2397,0.2426,0.2291,0.2293,0.2595,0.2626,0.2656,0.2839,0.2769,0.2784,0.2792,0.3242,0.3245,0.3249,0,0,0,0,0,0,0.1583,0.1629,0.2031,0.1861,0.1914,0.2072,0.2171,0.2196,0.2267,0.2432,0.2461,0.2334,0.2595,0.2634,0.28,0.2851,0.2791,0.2805,0.3238,0.3243,0.3247,0.3203,0,0,0,0,0,0,0.1567,0.1624,0.1679,0.1862,0.1923,0.2169,0.2174,0.2204,0.2293,0.2298,0.248,0.2507,0.2596,0.2776,0.2815,0.2872,0.2817,0.3234,0.324,0.3245,0.3201,0.3206,0.321,0,0,0,0,0,0.1548,0.1654,0.1682,0.1728,0.1996,0.2172,0.2207,0.2307,0.2296,0.2354,0.2461,0.2502,0.2839,0.2792,0.2837,0.2899,0.3231,0.3238,0.3245,0.3199,0.3205,0.321,0,0,0,0,0,0,0.1473,0.1679,0.1713,0.188,0.2008,0.2188,0.2264,0.231,0.2443,0.2442,0.256,0.26,0.2757,0.2844,0.2789,0.3049,0.3037,0.3053,0.2986,0.2993,0.2998,0.2975,0.2829,0,0,0,0,0,0.1476,0.1602,0.1775,0.1906,0.1969,0.2105,0.2185,0.2251,0.2388,0.2443,0.2561,0.2692,0.2828,0.2915,0.3049,0.3213,0.3255,0.3278,0.3282,0.3285,0.3298,0.3394,0.3406,0.3271,0.3271,0.3271,0,0,0.1484,0.1612,0.1684,0.1894,0.2001,0.2129,0.215,0.2284,0.2381,0.2463,0.2627,0.2718,0.2873,0.3038,0.3117,0.3116,0.3345,0.3294,0.3295,0.3307,0.3402,0.3415,0.3426,0.3276,0.3275,0.3274,0,0,0.1564,0.1672,0.1795,0.1901,0.2062,0.2152,0.2181,0.2356,0.242,0.2586,0.2651,0.2768,0.2998,0.3107,0.3192,0.3313,0.3356,0.3353,0.3378,0.3469,0.348,0.349,0.3535,0.355,0.3365,0.3365,0.3365,0,0.1553,0.1749,0.1852,0.1984,0.2075,0.2155,0.2281,0.2379,0.2576,0.2637,0.2632,0.2925,0.3035,0.3228,0.3257,0.3323,0.3361,0.3334,0.347,0.3481,0.3492,0.3537,0.3553,0.3364,0.3364,0.3364,0.3364,0,0.1729,0.1863,0.1943,0.2131,0.2231,0.2359,0.2482,0.2571,0.2628,0.2718,0.2888,0.3022,0.3185,0.3235,0.3292,0.3437,0.3431,0.3446,0.3437,0.3502,0.3546,0.3564,0.3362,0.3362,0.3363,0.3363,0,0,0.1772,0.2016,0.2043,0.2131,0.2314,0.2421,0.2552,0.2713,0.2788,0.292,0.3035,0.3228,0.3244,0.3341,0.341,0.3489,0.358,0.3496,0.3501,0.3509,0.375,0.374,0.3758,0.3608,0.3612,0.3615,0.3738,0,0.1877,0.2116,0.2213,0.2407,0.2534,0.2612,0.2727,0.2852,0.294,0.306,0.3157,0.3294,0.3303,0.3362,0.3445,0.3551,0.363,0.3543,0.3717,0.3722,0.3679,0.378,0.377,0.388,0.3756,0.3759,0.3761,0,0.2033,0.2167,0.2373,0.2543,0.26,0.2702,0.2857,0.2971,0.3115,0.3173,0.3281,0.3346,0.3488,0.3467,0.3665,0.3604,0.368,0.3743,0.375,0.3772,0.3747,0.3808,0.3917,0.3934,0.3789,0.3786,0.3784,0,0.2047,0.2279,0.2434,0.2505,0.2706,0.2776,0.2863,0.3005,0.3095,0.3231,0.3291,0.344,0.3523,0.3637,0.3741,0.3716,0.393,0.3918,0.3984,0.3981,0.4027,0.4023,0.4153,0.4072,0.4071,0.4071,0.4071,0,0.2156,0.228,0.2443,0.2538,0.2679,0.2789,0.2926,0.3019,0.3144,0.3259,0.3334,0.344,0.357,0.3693,0.3774,0.3927,0.3963,0.4015,0.4036,0.401,0.4004,0.4064,0.406,0.4076,0.4075,0.4074,0.4073,0,0.2197,0.2311,0.2485,0.266,0.2708,0.2804,0.2956,0.3051,0.3142,0.3287,0.3327,0.347,0.3619,0.3733,0.3925,0.398,0.4143,0.4164,0.4095,0.4106,0.4167,0.416,0.4342,0.4372,0.4267,0.4267,0.4268,0,0.2261,0.2359,0.2545,0.2627,0.2714,0.2845,0.2938,0.305,0.3144,0.3315,0.339,0.3544,0.3674,0.3907,0.4029,0.4177,0.4204,0.4257,0.4227,0.4198,0.4208,0.4202,0.4214,0.4261,0.4262,0.4262,0.4263,0,0.2363,0.2415,0.2546,0.2697,0.2806,0.293,0.3056,0.3119,0.3253,0.3354,0.3508,0.3608,0.3805,0.3958,0.4118,0.4208,0.4259,0.4271,0.4295,0.4271,0.4228,0.4255,0.4108,0.4267,0.4267,0.4266,0.4266,0.4266,0.2421,0.2512,0.2657,0.2801,0.2907,0.3023,0.3122,0.3225,0.3355,0.3525,0.3582,0.3741,0.3883,0.4104,0.4195,0.4321,0.4322,0.4356,0.4365,0.4372,0.4372,0.4205,0.435,0.435,0.435,0.435,0.435,0,0.253,0.2627,0.2758,0.2932,0.3045,0.3081,0.3222,0.3315,0.3454,0.3582,0.3708,0.3884,0.4032,0.4165,0.4319,0.4394,0.4422,0.4431,0.4429,0.4449,0.436,0.4325,0.4407,0.4407,0.4407,0.4407,0.4407,0.4407,0.26,0.2757,0.2825,0.3035,0.3132,0.3288,0.3366,0.3473,0.3576,0.377,0.3894,0.3979,0.411,0.4274,0.4412,0.4447,0.4502,0.4506,0.4547,0.4462,0.4455,0.4448,0.4417,0.4516,0.4517,0.4627,0.4628,0.4629]}]]